Погода Петровский Завод

Погода Петровский Завод : погода сейчас, прогноз погоды и архив. Всё, что Вы хотите узнать о погоде Петровский Завод!

Хотите узнать прогноз погоды Петровский Завод? Тогда Вам сюда: Погода Петровский Завод

Поиск расширенной информации на нашем сайте:

Другие новости

Новости СМИ2

Главная страница сайта

Новости сайта

03.07.2017

Напоминаем, что на нашем специализированном сайте Метеоцентр.Азия вы можете получить высокодетализированные автоматические прогнозы погоды по пунктам России, СНГ и мира в авиационном формате (включающие направление и скорость ветра, видимость, явления погоды, количество и форму облачности, нижнюю и верхнюю границу облачности).

Рекомендуем: шкуры чернобурки купить

Погода Петровский Завод - сегодня

Время (UTC), дата Ветер
(°,м/с) 
Видим.   Явления Облачность Т
(°С)
Тd
(°С)
f(%) Тe
(°С)
Pmin
(гПа)
dP
(гПа)
Po
(мм)
O2
(г/м3)
Тmin Tmax R s Состояние
почвы
21 16.08.17 020 (С) н/о    н/о 
+15 +14.2 95 +26  1011.5  -0.4  690  261           
00 17.08.17 тихо ()   20000 м  {ливн. осадки}  8/8 600 м кучево-дожд. 
[Cb cap]
+16.4 +14.9 91 +27  1010.7  -0.3  690  259  +14.7    0.5    влажная 
03 17.08.17 210 (ЮЗ) н/о    н/о 
+20 +16.5 80 +34  1008.9  -0.5  690  255           
06 17.08.17 240 (ЮЗ) 20000 м    6/5 600 м кучево-дожд. 
[Cb cap]
+24.4 +15.1 56 +36  1006.4  -1.1  689  251           
09 17.08.17 270 (З) н/о    н/о 
+24.5 +13.9 52 +34  1006.2  -0.2  689  252           
12 17.08.17 240 (ЮЗ) 20000 м    8/4 600 м кучево-дожд. 
[Cb cap]
+21.2 +15.3 69 +33  1007.7  0.5  689  254    +25.3       
15 17.08.17 тихо ()   н/о    н/о 
+14.8 +13.7 93 +23  1010.7  0.8  690  261           
18 17.08.17 тихо ()   н/о    н/о 
+13 +12.3 96 +19  1011.9  0.5  690  263           
21 17.08.17 050 (СВ) н/о    н/о 
+11 +10.4 96 +15  1013.3  0.5  690  265           
00 18.08.17 тихо ()   20000 м  {туман}  8/4 600 м кучево-дожд., верхняя 
[Cb cap|Ci sp]
+13.9 +12.4 91 +20  1013.9  1.5  692  263  +10.7        влажная 
03 18.08.17 050 (СВ) н/о    н/о 
+19 +12.2 65 +26  1012.1  -0.1  691  258           
06 18.08.17 330 (СЗ) 20000 м    10/3 600 м кучево-дожд., средняя 
[Cb cap|As op]
+21 +10.2 50 +24  1011.3  -0.2  691  257           
09 18.08.17 030 (СВ) н/о    н/о 
+22.9 +10.6 46 +27  1009.5  -1.1  690  255           
12 18.08.17 320 (СЗ) 20000 м    8/3 600 м кучево-дожд., средняя, верхняя 
[Cb cap|Ac lent|Ci sp]
+18 +11.3 65 +24  1011.3  0.3  691  259    +23.7       
15 18.08.17 тихо ()   н/о    н/о 
+13.3 +10.8 85 +17  1013.6  0.6  691  263           
18 18.08.17 020 (С) н/о    8/8 1000 м 
[Sc]
+12.7 +10.3 85 +16  1012.7  -1  690  264           
21 18.08.17 040 (СВ) н/о    н/о 
+12.3 +9.5 83 +14  1012.6  -0.3  690  264           
00 19.08.17 040 (СВ) 20000 м    10/10 600 м кучево-дожд. 
[Cb cap]
+13.3 +9.6 78 +15  1011.2  -0.9  689  263  +12        сухая 
03 19.08.17 050 (СВ) н/о    н/о 
+12.7 +11.3 91 +17  1010.6  -0.7  689  263           
06 19.08.17 050 (СВ) 20000 м  слаб. дождь{ливн. осадки}  10/10 600 м 
[Frnb|Ns]
+14.5 +10.9 79 +18  1009.3  -0.6  689  261           
09 19.08.17 050 (СВ) н/о    н/о 
+14.1 +10.6 79 +18  1009.2  -0.3  688  262           
12 19.08.17 030 (СВ) 20000 м  {дождь}  10/10 600 м 
[Frnb|Ns]
+14.1 +11.2 83 +20  1008.1  -1  688  261    +14.9     
15 19.08.17 030 (СВ) н/о    н/о 
+12.8 +11.1 89 +17  1006.7  -1.8  686  262           
18 19.08.17 010 (С) н/о  слаб. дождь  10/10 600 м 
[Frnb|Ns]
+12.3 +10.8 91 +16  1004.4  -2.2  685  262           
21 19.08.17 020 (С) н/о    н/о 
+12.2 +11 92 +17  1002.3  -1.9  683  261           
Время (UTC), дата Ветер
(°,м/с) 
Видим.   Явления Облачность Т
(°С)
Тd
(°С)
f(%) Тe
(°С)
Pmin
(гПа)
dP
(гПа)
Po
(мм)
O2
(г/м3)
Тmin Tmax R s Состояние
почвы

Для получения пояснительной информации подведите курсор к названию столбца.

ПОГОДА Петровский Завод - архив

Всё, что Вы хотите узнать о погоде Петровский Завод - удобно и подробно!

Выберите нужную дату (начиная с 1 января 2015* года) и нажмите кнопку "Найти".
Будут отображены архивные сводки погоды по пункту Петровский Завод, начиная с указанной даты.


Отображать данные в формате CSV (для использования в таблицах Excel)


Внимание! Наш архив погоды предназначен исключительно для личного некоммерческого использования в познавательных целях. Если Вам необходимы официальные справки о состоянии погоды (для производственных, юридических, коммерческих и т.п. целей), обращайтесь в органы Росгидромета.

*Примечание: данная дата относится к архиву по метеостанциям СССР (Россия, СНГ, Балтия).
Архив по метеостанциям Зарубежной Европы и Азии (кроме Китая) хранится 10 дней, по другим регионам земного шара (Китай, Африка, Америка, Австралия, Океания) - 1 день.

Петровский Завод - район местоположения метеостанции


Название, широта, долгота, высота метеостанции:
Петровский Завод 51.3°ш. 108.9°д. 806 м над ур. моря [Российская Федерация]

Дополнительная информация

В oтличие oт бoльшинства пoгoдных сайтoв мы публикуем пoдрoбную метеoинфoрмацию в детальнoм прoфессиoнальнoм фoрмате.

Характеристики температуры и влажнoсти вoздуха измеряются на высoте 2 м в тени вдали oт зданий и деревьев.
Скoрoсть ветра измеряется на высoте 10 м (на урoвне рoста челoвека скoрoсть ветра ниже в 1.5-2 раза). Если метеoстанция нахoдится в гoрoде или в лесу, тo скoрoсть ветра занижена на 2-4 м/с пo сравнению с oткрытым местoм. Скoрoсть ветра над акватoриями крупных рек и oзёр, а также на вершинах хoлмoв на 2-5 м/с выше, чем в oбычных услoвиях.
Атмoсфернoе давление в разных тoчках местнoсти мoжет значительнo oтличаться oт давления на метеoстанции, в зависимoсти oт услoвий рельефа (при пoдъёме на 10 м давление пoнижается примернo на 1 мм рт.ст.).